| time (UTC) | temp C | wind direction | speed KPH | gust KPH | rain 1hr cm | rain 24hr cm | rain mn cm | humidity % | barometer mb |
| 20260906113032 | 21 | 67 | 4.8 | 12.9 | 0.00 | 0.00 | 0.00 | 97 | 1014.8 |
| 20260906111529 | 21 | 78 | 9.7 | 14.5 | 0.00 | 0.00 | 0.00 | 96 | 1014.7 |
| 20260906110028 | 21 | 76 | 8.0 | 19.3 | 0.00 | 0.00 | 0.00 | 97 | 1014.4 |
| 20260906104527 | 21 | 56 | 8.0 | 16.1 | 0.00 | 0.00 | 0.00 | 97 | 1014.2 |
| 20260906103026 | 21 | 62 | 11.3 | 19.3 | 0.00 | 0.00 | 0.00 | 97 | 1014.0 |
| 20260906101525 | 21 | 60 | 9.7 | 16.1 | 0.00 | 0.00 | 0.00 | 98 | 1013.9 |
| 20260906100028 | 21 | 46 | 6.4 | 11.3 | 0.00 | 0.00 | 0.00 | 98 | 1014.1 |
| 20260906094526 | 21 | 44 | 3.2 | 8.0 | 0.00 | 0.00 | 0.00 | 98 | 1014.1 |
| 20260906093026 | 21 | 35 | 3.2 | 12.9 | 0.00 | 0.00 | 0.00 | 97 | 1014.0 |
| 20260906091525 | 21 | 7 | 3.2 | 9.7 | 0.00 | 0.00 | 0.00 | 97 | 1014.1 |
| 20260906090021 | 21 | 18 | 6.4 | 9.7 | 0.00 | 0.00 | 0.00 | 97 | 1014.2 |
| 20260906084520 | 21 | 43 | 3.2 | 9.7 | 0.00 | 0.00 | 0.00 | 97 | 1014.1 |
| 20260906083020 | 21 | 353 | 4.8 | 11.3 | 0.00 | 0.00 | 0.00 | 97 | 1014.0 |
| 20260906081520 | 21 | 53 | 3.2 | 11.3 | 0.00 | 0.00 | 0.00 | 97 | 1013.8 |
| 20260906080019 | 21 | 24 | 4.8 | 8.0 | 0.00 | 0.00 | 0.00 | 97 | 1013.9 |
| 20260906074517 | 21 | 34 | 3.2 | 11.3 | 0.00 | 0.00 | 0.00 | 97 | 1014.0 |
| 20260906073019 | 21 | 32 | 4.8 | 9.7 | 0.00 | 0.00 | 0.00 | 97 | 1013.9 |
| 20260906071517 | 21 | 48 | 3.2 | 6.4 | 0.00 | 0.00 | 0.00 | 97 | 1014.1 |
| 20260906070016 | 21 | 24 | 3.2 | 8.0 | 0.00 | 0.00 | 0.00 | 97 | 1014.2 |
| 20260906064514 | 21 | 20 | 1.6 | 8.0 | 0.00 | 0.00 | 0.00 | 97 | 1014.1 |
| 20260906063015 | 21 | 32 | 3.2 | 11.3 | 0.00 | 0.00 | 0.00 | 97 | 1014.1 |
| 20260906061512 | 21 | 18 | 3.2 | 8.0 | 0.00 | 0.00 | 0.00 | 96 | 1014.4 |
| 20260906060018 | 21 | 31 | 3.2 | 9.7 | 0.00 | 0.00 | 0.00 | 97 | 1014.2 |
| 20260906054511 | 21 | 42 | 4.8 | 9.7 | 0.00 | 0.00 | 0.00 | 97 | 1014.2 |
| 20260906053008 | 21 | 51 | 3.2 | 8.0 | 0.00 | 0.00 | 0.00 | 97 | 1013.9 |
| 20260906051505 | 21 | 63 | 4.8 | 9.7 | 0.00 | 0.00 | 0.00 | 96 | 1013.8 |
| 20260906050003 | 21 | 49 | 1.6 | 11.3 | 0.00 | 0.00 | 0.00 | 96 | 1013.8 |
| 20260906044502 | 21 | 41 | 4.8 | 9.7 | 0.00 | 0.00 | 0.00 | 95 | 1013.6 |
| 20260906043005 | 21 | 66 | 6.4 | 16.1 | 0.00 | 0.00 | 0.00 | 94 | 1013.6 |
| 20260906041601 | 22 | 49 | 8.0 | 20.9 | 0.00 | 0.00 | 0.00 | 94 | 1013.8 |
| 20260906040136 | 22 | 63 | 9.7 | 19.3 | 0.00 | 0.00 | 0.00 | 94 | 1013.6 |
| 20260906034605 | 22 | 51 | 8.0 | 17.7 | 0.00 | 0.00 | 0.00 | 93 | 1013.6 |
| 20260906033105 | 23 | 38 | 8.0 | 14.5 | 0.00 | 0.00 | 0.00 | 94 | 1013.3 |
| 20260906031554 | 23 | 57 | 6.4 | 14.5 | 0.00 | 0.00 | 0.00 | 93 | 1013.2 |
| 20260906030054 | 23 | 62 | 8.0 | 17.7 | 0.00 | 0.00 | 0.00 | 91 | 1013.2 |
| 20260906024607 | 24 | 53 | 8.0 | 19.3 | 0.00 | 0.00 | 0.00 | 90 | 1013.2 |
| 20260906023100 | 25 | 39 | 9.7 | 20.9 | 0.00 | 0.00 | 0.00 | 89 | 1012.9 |
| 20260906021549 | 25 | 64 | 9.7 | 17.7 | 0.00 | 0.00 | 0.00 | 88 | 1012.6 |
| 20260906020049 | 26 | 12 | 9.7 | 19.3 | 0.00 | 0.00 | 0.00 | 87 | 1012.4 |
| 20260906014548 | 26 | 15 | 12.9 | 25.7 | 0.00 | 0.00 | 0.00 | 87 | 1012.2 |
| 20260906013047 | 26 | 61 | 11.3 | 20.9 | 0.00 | 0.00 | 0.00 | 87 | 1011.9 |
| 20260906011546 | 27 | 44 | 11.3 | 20.9 | 0.00 | 0.00 | 0.00 | 87 | 1011.7 |
| 20260906010046 | 27 | 44 | 12.9 | 24.1 | 0.00 | 0.00 | 0.00 | 84 | 1011.3 |
| 20260906004546 | 27 | 25 | 4.8 | 9.7 | 0.00 | 0.00 | 0.00 | 86 | 1011.3 |
| 20260906003045 | 28 | 25 | 3.2 | 8.0 | 0.00 | 0.00 | 0.00 | 85 | 1011.1 |
| 20260906001545 | 28 | 34 | 1.6 | 9.7 | 0.00 | 0.00 | 0.00 | 83 | 1011.0 |
| 20260906000044 | 29 | 52 | 3.2 | 11.3 | 0.00 | 0.00 | 0.00 | 83 | 1011.0 |
| 20260905234544 | 30 | 31 | 3.2 | 8.0 | 0.00 | 0.00 | 0.00 | 82 | 1010.9 |
| 20260905233053 | 30 | 32 | 3.2 | 11.3 | 0.00 | 0.00 | 0.00 | 80 | 1011.0 |
| 20260905231542 | 31 | 40 | 6.4 | 12.9 | 0.00 | 0.00 | 0.00 | 77 | 1010.8 |
| 20260905230042 | 31 | 34 | 8.0 | 16.1 | 0.00 | 0.00 | 0.00 | 76 | 1010.8 |
| 20260905224609 | 31 | 32 | 8.0 | 16.1 | 0.00 | 0.00 | 0.00 | 75 | 1010.6 |
| 20260905223044 | 32 | 15 | 8.0 | 16.1 | 0.00 | 0.00 | 0.00 | 72 | 1010.6 |
| 20260905221539 | 32 | 42 | 6.4 | 14.5 | 0.00 | 0.00 | 0.00 | 70 | 1010.6 |
| 20260905220038 | 33 | 27 | 9.7 | 16.1 | 0.00 | 0.00 | 0.00 | 68 | 1010.6 |
| 20260905214544 | 33 | 344 | 6.4 | 16.1 | 0.00 | 0.00 | 0.00 | 66 | 1010.6 |
| 20260905213038 | 33 | 358 | 4.8 | 11.3 | 0.00 | 0.00 | 0.00 | 66 | 1010.6 |
| 20260905211544 | 33 | 4 | 4.8 | 14.5 | 0.00 | 0.00 | 0.00 | 66 | 1010.5 |
| 20260905210042 | 33 | 340 | 8.0 | 16.1 | 0.00 | 0.00 | 0.00 | 64 | 1010.6 |
| 20260905204532 | 33 | 48 | 9.7 | 17.7 | 0.00 | 0.00 | 0.00 | 67 | 1010.9 |
| 20260905203032 | 33 | 32 | 8.0 | 17.7 | 0.00 | 0.00 | 0.00 | 68 | 1010.9 |
| 20260905201531 | 35 | 8 | 8.0 | 17.7 | 0.00 | 0.00 | 0.00 | 62 | 1011.0 |
| 20260905200030 | 35 | 8 | 9.7 | 14.5 | 0.00 | 0.00 | 0.00 | 61 | 1011.1 |
| 20260905194528 | 34 | 345 | 9.7 | 14.5 | 0.00 | 0.00 | 0.00 | 61 | 1011.0 |
| 20260905193027 | 33 | 1 | 4.8 | 17.7 | 0.00 | 0.00 | 0.00 | 63 | 1011.3 |
| 20260905191526 | 33 | 342 | 8.0 | 19.3 | 0.00 | 0.00 | 0.00 | 62 | 1011.4 |
| 20260905190025 | 33 | 326 | 4.8 | 17.7 | 0.00 | 0.00 | 0.00 | 63 | 1011.4 |
| 20260905184529 | 34 | 352 | 6.4 | 14.5 | 0.00 | 0.00 | 0.00 | 62 | 1011.5 |
| 20260905183122 | 34 | 355 | 6.4 | 19.3 | 0.00 | 0.00 | 0.00 | 62 | 1011.8 |
| 20260905181519 | 34 | 298 | 9.7 | 16.1 | 0.00 | 0.00 | 0.00 | 60 | 1011.9 |
| 20260905180018 | 34 | 353 | 6.4 | 14.5 | 0.00 | 0.00 | 0.00 | 62 | 1011.9 |
| 20260905174519 | 34 | 335 | 6.4 | 11.3 | 0.00 | 0.00 | 0.00 | 60 | 1012.1 |
| 20260905173016 | 34 | 49 | 8.0 | 16.1 | 0.00 | 0.00 | 0.00 | 59 | 1012.1 |
| 20260905171514 | 34 | 356 | 6.4 | 11.3 | 0.00 | 0.00 | 0.00 | 62 | 1012.3 |
| 20260905170012 | 33 | 320 | 6.4 | 14.5 | 0.00 | 0.00 | 0.00 | 62 | 1012.3 |
| 20260905164515 | 33 | 324 | 6.4 | 11.3 | 0.00 | 0.00 | 0.00 | 65 | 1012.3 |
| 20260905163010 | 33 | 303 | 4.8 | 8.0 | 0.00 | 0.00 | 0.00 | 65 | 1012.5 |
| 20260905161509 | 33 | 304 | 4.8 | 11.3 | 0.00 | 0.00 | 0.00 | 66 | 1012.6 |
| 20260905160005 | 33 | 336 | 4.8 | 9.7 | 0.00 | 0.00 | 0.00 | 67 | 1012.6 |
| 20260905154503 | 33 | 319 | 4.8 | 6.4 | 0.00 | 0.00 | 0.00 | 67 | 1012.7 |
| 20260905153101 | 32 | 302 | 4.8 | 9.7 | 0.00 | 0.00 | 0.00 | 69 | 1012.5 |
| 20260905153001 | 32 | 298 | 4.8 | 9.7 | 0.00 | 0.00 | 0.00 | 69 | 1012.4 |
| 20260905151558 | 32 | 269 | 4.8 | 9.7 | 0.00 | 0.00 | 0.00 | 71 | 1012.4 |
| 20260905150100 | 31 | 285 | 1.6 | 8.0 | 0.00 | 0.00 | 0.00 | 72 | 1012.5 |
| 20260905144552 | 31 | 279 | 1.6 | 6.4 | 0.00 | 0.00 | 0.00 | 75 | 1012.5 |
| 20260905143048 | 30 | 264 | 3.2 | 6.4 | 0.00 | 0.00 | 0.00 | 76 | 1012.7 |
| 20260905141545 | 30 | 254 | 3.2 | 6.4 | 0.00 | 0.00 | 0.00 | 77 | 1012.7 |
| 20260905140041 | 29 | 257 | 3.2 | 6.4 | 0.00 | 0.00 | 0.00 | 78 | 1012.6 |
| 20260905134537 | 28 | 273 | 3.2 | 6.4 | 0.00 | 0.00 | 0.00 | 79 | 1012.6 |
| 20260905133037 | 28 | 271 | 1.6 | 6.4 | 0.00 | 0.00 | 0.00 | 82 | 1012.6 |
| 20260905131530 | 27 | 233 | 1.6 | 4.8 | 0.00 | 0.00 | 0.00 | 84 | 1012.6 |
| 20260905130029 | 26 | 218 | 1.6 | 4.8 | 0.00 | 0.00 | 0.00 | 86 | 1012.6 |
| 20260905124526 | 26 | 224 | 0.0 | 1.6 | 0.00 | 0.00 | 0.00 | 86 | 1012.5 |
| 20260905123024 | 26 | 152 | 0.0 | 0.0 | 0.00 | 0.00 | 0.00 | 91 | 1012.5 |
| 20260905121519 | 23 | 152 | 0.0 | 0.0 | 0.00 | 0.00 | 0.00 | 96 | 1012.4 |
| 20260905120018 | 22 | 146 | 0.0 | 1.6 | 0.00 | 0.00 | 0.00 | 98 | 1012.2 |
| 20260905114516 | 22 | 227 | 0.0 | 0.0 | 0.00 | 0.00 | 0.00 | 98 | 1012.3 |